Weather History for KSFY - May, 2014

Change the Weather History Date:

Sunday, May 18, 2014

  Actual Average (KCWI) Record (KCWI)
Temperature  
Mean Temperature 56 °F -  
Max Temperature 71 °F 75 °F 90 °F (1964)
Min Temperature 42 °F 52 °F 33 °F (2002)
Degree Days  
Heating Degree Days 8    
Growing Degree Days 6 (Base 50)    
Moisture  
Dew Point 37 °F    
Average Humidity 50    
Maximum Humidity 77    
Minimum Humidity 25    
Precipitation  
Precipitation 0.00 in - - ()
Sea Level Pressure  
Sea Level Pressure 30.17 in    
Wind  
Wind Speed 7 mph (South)    
Max Wind Speed 10 mph    
Max Gust Speed -    
Visibility 10 miles    
Events      
Averages and records for this station are not official NWS values.
T = Trace of Precipitation, MM = Missing Value Source: NWS Daily Summary

Daily Weather History Graph

Daily Weather History Graph

Search for Another Location

Airport or City:

Trip Planner

Search our weather history database for the weather conditions in past years. The results will help you decide how hot, cold, wet, or windy it might be!

Date:

Astronomy

May. 18, 2014 Rise Set
Actual Time 5:36 AM CDT 8:17 PM CDT
Civil Twilight 5:04 AM CDT 8:49 PM CDT
Nautical Twilight 4:24 AM CDT 9:30 PM CDT
Astronomical Twilight 3:38 AM CDT 10:16 PM CDT
Moon No Moon Rise 9:26 AM CDT (5/18)
Length of Visible Light 15h 45m
Length of Day
14h 40m
Waning Gibbous, 81% of the Moon is Illuminated
May 18
Waning Gibbous
May 21
Last Quarter
May 28
New
Jun 5
First Quarter
Jun 12
Full

Hourly Weather History & Observations

Time (CDT) Temp. Windchill Dew Point Humidity Pressure Visibility Wind Dir Wind Speed Gust Speed Precip Events Conditions
12:15 AM 44.2 °F 40.3 °F 37.4 °F 77% 30.16 in 10.0 mi SE 6.9 mph - N/A   Clear
12:35 AM 44.1 °F 40.8 °F 37.4 °F 77% 30.16 in 10.0 mi SSE 5.8 mph - N/A   Clear
12:55 AM 42.8 °F 38.6 °F 36.0 °F 77% 30.17 in 10.0 mi SE 6.9 mph - N/A   Clear
1:15 AM 44.2 °F 40.3 °F 37.0 °F 76% 30.16 in 10.0 mi SSE 6.9 mph - N/A   Scattered Clouds
1:35 AM 44.2 °F 41.0 °F 37.0 °F 76% 30.17 in 10.0 mi SE 5.8 mph - N/A   Mostly Cloudy
1:55 AM 43.9 °F 40.5 °F 36.9 °F 76% 30.17 in 10.0 mi SE 5.8 mph - N/A   Scattered Clouds
2:15 AM 44.4 °F 42.0 °F 36.9 °F 75% 30.17 in 10.0 mi SSE 4.6 mph - N/A   Scattered Clouds
2:35 AM 44.6 °F 40.7 °F 36.1 °F 72% 30.17 in 10.0 mi South 6.9 mph - N/A   Scattered Clouds
2:55 AM 45.0 °F 42.6 °F 36.0 °F 71% 30.18 in 10.0 mi SSE 4.6 mph - N/A   Scattered Clouds
3:15 AM 43.3 °F 39.2 °F 35.6 °F 74% 30.18 in 10.0 mi SSE 6.9 mph - N/A   Scattered Clouds
3:35 AM 43.9 °F 40.5 °F 35.8 °F 73% 30.18 in 10.0 mi SSE 5.8 mph - N/A   Clear
3:55 AM 43.2 °F 38.4 °F 35.8 °F 75% 30.18 in 10.0 mi SSE 8.1 mph - N/A   Scattered Clouds
4:15 AM 43.3 °F 38.6 °F 35.6 °F 74% 30.18 in 10.0 mi South 8.1 mph - N/A   Scattered Clouds
4:35 AM 43.7 °F 39.1 °F 35.2 °F 72% 30.18 in 10.0 mi SSE 8.1 mph - N/A   Clear
4:55 AM 43.9 °F 40.5 °F 35.1 °F 71% 30.19 in 10.0 mi SSE 5.8 mph - N/A   Clear
5:35 AM 42.8 °F 39.3 °F 35.2 °F 75% 30.19 in 10.0 mi SSE 5.8 mph - N/A   Clear
5:55 AM 43.0 °F 39.5 °F 35.1 °F 74% 30.19 in 10.0 mi SSE 5.8 mph - N/A   Clear
6:15 AM 43.3 °F 39.9 °F 35.6 °F 74% 30.20 in 10.0 mi SSE 5.8 mph - N/A   Clear
6:35 AM 44.6 °F 42.2 °F 36.5 °F 73% 30.20 in 10.0 mi SSE 4.6 mph - N/A   Clear
6:55 AM 46.6 °F - 37.6 °F 71% 30.20 in 10.0 mi SSE 3.5 mph - N/A   Clear
7:15 AM 48.0 °F - 37.8 °F 68% 30.21 in 10.0 mi SSE 3.5 mph - N/A   Clear
7:35 AM 49.6 °F - 38.7 °F 66% 30.21 in 10.0 mi SSE 4.6 mph - N/A   Clear
7:55 AM 52.3 °F - 40.1 °F 63% 30.21 in 10.0 mi SSW 5.8 mph - N/A   Clear
8:15 AM 53.8 °F - 39.7 °F 59% 30.21 in 10.0 mi SSW 6.9 mph - N/A   Clear
8:35 AM 55.2 °F - 40.6 °F 58% 30.22 in 10.0 mi SSW 6.9 mph - N/A   Clear
8:55 AM 56.8 °F - 39.9 °F 53% 30.22 in 10.0 mi SW 6.9 mph - N/A   Clear
9:15 AM 58.1 °F - 39.4 °F 50% 30.22 in 10.0 mi SSW 5.8 mph - N/A   Clear
9:35 AM 59.2 °F - 41.0 °F 51% 30.22 in 10.0 mi SSW 5.8 mph - N/A   Clear
9:55 AM 61.0 °F - 42.4 °F 51% 30.22 in 10.0 mi SW 5.8 mph - N/A   Clear
10:15 AM 62.6 °F - 41.2 °F 45% 30.22 in 10.0 mi SW 9.2 mph - N/A   Clear
10:35 AM 63.5 °F - 40.5 °F 43% 30.22 in 10.0 mi SW 9.2 mph - N/A   Clear
10:55 AM 65.5 °F - 40.6 °F 40% 30.22 in 10.0 mi SW 9.2 mph - N/A   Clear
11:15 AM 65.5 °F - 37.2 °F 35% 30.22 in 10.0 mi WSW 9.2 mph - N/A   Clear
11:35 AM 66.4 °F - 36.3 °F 33% 30.21 in 10.0 mi WSW 8.1 mph - N/A   Clear
11:55 AM 67.3 °F - 36.5 °F 32% 30.21 in 10.0 mi WSW 8.1 mph - N/A   Clear
12:15 PM 67.8 °F - 36.3 °F 31% 30.20 in 10.0 mi WSW 6.9 mph - N/A   Clear
12:35 PM 68.4 °F - 35.8 °F 30% 30.20 in 10.0 mi SW 6.9 mph - N/A   Clear
12:55 PM 69.1 °F - 35.4 °F 29% 30.19 in 10.0 mi SSW 6.9 mph - N/A   Clear
1:15 PM 69.6 °F - 33.8 °F 27% 30.19 in 10.0 mi South 8.1 mph - N/A   Clear
1:35 PM 69.6 °F - 34.7 °F 28% 30.18 in 10.0 mi SSW 8.1 mph - N/A   Clear
1:55 PM 70.0 °F - 34.3 °F 27% 30.18 in 10.0 mi SSW 9.2 mph - N/A   Clear
2:15 PM 70.7 °F - 34.5 °F 26% 30.18 in 10.0 mi SSW 10.4 mph - N/A   Clear
2:35 PM 70.7 °F - 33.8 °F 26% 30.17 in 10.0 mi SSW 10.4 mph - N/A   Scattered Clouds
2:55 PM 71.1 °F - 34.2 °F 26% 30.17 in 10.0 mi SSW 9.2 mph - N/A   Clear
3:15 PM 71.2 °F - 35.4 °F 27% 30.16 in 10.0 mi SW 10.4 mph - N/A   Scattered Clouds
3:35 PM 70.9 °F - 33.4 °F 25% 30.15 in 10.0 mi SSW 6.9 mph - N/A   Clear
3:55 PM 71.1 °F - 32.9 °F 25% 30.15 in 10.0 mi SW 10.4 mph - N/A   Clear
4:15 PM 71.6 °F - 33.4 °F 25% 30.15 in 10.0 mi SSW 8.1 mph - N/A   Clear
4:35 PM 70.7 °F - 34.0 °F 26% 30.15 in 10.0 mi SSW 6.9 mph - N/A   Clear
4:55 PM 70.9 °F - 34.3 °F 26% 30.15 in 10.0 mi SSW 9.2 mph - N/A   Clear
5:15 PM 69.1 °F - 35.8 °F 29% 30.15 in 10.0 mi SSW 10.4 mph - N/A   Clear
5:35 PM 67.6 °F - 34.9 °F 30% 30.15 in 10.0 mi SSW 8.1 mph - N/A   Clear
5:55 PM 67.1 °F - 34.5 °F 30% 30.14 in 10.0 mi South 8.1 mph - N/A   Clear
6:15 PM 68.7 °F - 34.2 °F 28% 30.13 in 10.0 mi South 9.2 mph - N/A   Clear
6:35 PM 67.3 °F - 34.7 °F 30% 30.13 in 10.0 mi South 9.2 mph - N/A   Clear
6:55 PM 67.6 °F - 34.7 °F 30% 30.13 in 10.0 mi South 10.4 mph - N/A   Clear
7:15 PM 67.1 °F - 35.6 °F 31% 30.13 in 10.0 mi South 10.4 mph - N/A   Clear
7:35 PM 66.2 °F - 35.2 °F 32% 30.13 in 10.0 mi South 9.2 mph - N/A   Scattered Clouds
7:55 PM 64.4 °F - 36.7 °F 36% 30.13 in 10.0 mi South 9.2 mph - N/A   Scattered Clouds
8:15 PM 63.3 °F - 37.6 °F 39% 30.13 in 10.0 mi South 8.1 mph - N/A   Scattered Clouds
8:35 PM 61.5 °F - 38.3 °F 42% 30.13 in 10.0 mi South 8.1 mph - N/A   Clear
8:55 PM 60.1 °F - 38.8 °F 45% 30.13 in 10.0 mi SSE 6.9 mph - N/A   Clear
9:15 PM 58.5 °F - 40.1 °F 51% 30.13 in 10.0 mi SSE 6.9 mph - N/A   Clear
9:35 PM 58.3 °F - 39.7 °F 50% 30.14 in 10.0 mi SSE 5.8 mph - N/A   Clear
9:55 PM 57.9 °F - 40.1 °F 52% 30.14 in 10.0 mi SSE 8.1 mph - N/A   Clear
10:15 PM 58.1 °F - 40.3 °F 52% 30.14 in 10.0 mi SSE 9.2 mph - N/A   Clear
10:35 PM 57.4 °F - 40.5 °F 53% 30.14 in 10.0 mi SSE 8.1 mph - N/A   Clear
10:55 PM 56.8 °F - 40.6 °F 55% 30.14 in 10.0 mi SSE 6.9 mph - N/A   Clear
11:15 PM 55.6 °F - 41.0 °F 58% 30.15 in 10.0 mi SSE 6.9 mph - N/A   Clear
11:35 PM 54.7 °F - 41.0 °F 60% 30.15 in 10.0 mi South 5.8 mph - N/A   Clear
11:55 PM 54.5 °F - 41.0 °F 60% 30.16 in 10.0 mi SSE 8.1 mph - N/A   Clear